CAPE
56 66 58 57 47 45 62 20 15 29 6 3 14 104 24 7 16 21 4 0 0 0 0 0 0 0 0 0 0 0 0 0 0 0 0 0 0 0 0 0 0 0 0 0 0
73 85 87 85 85 82 57 49 27 43 28 3 7 52 50 47 7 11 0 0 1 0 8 0 0 0 0 0 0 0 0 0 0 0 0 0 0 0 0 0 0 0 0 0 0
80 96 105 133 87 103 79 53 39 28 28 7 13 27 103 19 0 0 0 0 0 9 26 0 0 0 0 0 0 0 0 0 0 0 0 0 0 0 0 0 0 0 0 0 11
86 94 108 121 140 144 133 102 53 18 32 15 21 33 58 8 0 0 9 0 107 43 18 0 0 0 0 0 0 0 0 0 0 0 0 0 0 0 0 0 0 0 0 0 0
85 89 102 128 152 144 186 139 93 36 24 34 35 48 27 10 0 0 8 80 48 55 14 0 0 0 0 0 0 0 0 0 0 0 0 0 0 0 0 0 0 0 0 0 0
83 80 98 135 182 187 209 158 124 57 57 59 38 21 35 1 0 0 0 55 64 29 10 0 0 0 0 0 0 0 0 0 0 0 0 0 0 0 0 0 0 0 0 0 0
83 83 84 148 226 207 200 199 158 141 88 69 32 12 39 0 0 0 52 196 160 52 5 0 0 0 0 0 0 0 0 0 0 0 0 0 0 0 0 0 0 0 0 0 0
90 97 112 156 203 217 206 200 197 153 121 83 41 24 26 0 0 0 10 98 50 47 75 70 48 3 0 0 0 0 0 0 0 0 0 0 0 0 0 0 0 0 0 0 0
83 107 121 171 170 209 164 169 225 192 157 101 44 26 4 0 0 0 0 6 20 47 103 95 6 10 0 0 0 0 0 0 0 0 0 0 0 0 0 0 0 0 0 0 0
81 91 74 73 136 184 207 244 215 96 68 71 42 59 6 0 0 0 0 0 72 133 108 88 32 2 0 0 0 0 0 0 0 0 0 0 0 0 0 0 0 0 0 0 0
54 38 41 78 144 230 149 0 0 23 76 0 0 0 0 0 0 0 0 10 109 65 107 16 54 2 0 0 0 0 0 0 0 0 0 0 0 0 0 0 0 0 0 0 0
35 32 48 112 145 169 37 3 2 15 20 15 3 3 0 2 11 0 0 11 60 73 4 7 9 0 6 5 3 5 0 0 0 0 0 0 0 0 0 0 0 0 0 0 0
88 71 82 127 163 15 3 0 13 0 3 0 0 0 0 8 7 1 0 14 29 54 8 5 0 12 0 5 4 4 0 0 0 0 0 0 0 0 0 0 0 0 0 0 0
213 229 177 153 88 23 0 9 10 0 0 1 1 0 10 12 5 0 0 8 4 2 1 0 0 3 13 11 0 0 0 0 0 0 0 0 0 0 0 0 0 0 0 0 0
93 136 168 152 51 5 39 9 0 4 2 7 13 18 12 2 0 22 7 0 0 0 0 1 0 0 0 0 0 0 0 0 0 0 0 0 0 0 0 0 0 0 0 0 0
40 107 73 0 13 17 0 3 0 0 0 1 27 6 20 2 12 36 10 0 0 0 0 0 0 0 0 0 0 0 0 0 0 0 0 0 0 0 0 0 0 0 0 0 0
8 51 12 4 0 0 0 0 0 0 3 2 9 7 6 27 33 11 0 5 5 0 2 0 0 0 0 0 0 0 0 0 0 0 0 0 0 0 0 0 0 0 0 0 0
12 0 7 0 0 0 0 0 0 3 1 1 10 8 7 30 12 3 0 0 0 0 0 0 0 0 0 0 0 0 0 0 0 0 0 0 0 0 0 0 0 0 0 0 0
0 0 8 1 1 0 0 0 3 2 2 12 8 1 1 1 21 6 0 0 0 0 0 0 0 0 0 0 0 0 0 0 0 0 0 0 0 0 0 0 0 0 0 0 0
0 0 0 0 0 0 0 4 4 3 3 0 0 0 1 0 1 4 0 0 0 0 0 0 0 0 0 0 0 0 0 0 0 0 0 0 0 0 0 0 0 0 0 0 0
0 0 0 0 0 2 1 0 6 0 0 0 0 0 0 0 0 0 0 0 0 0 0 0 0 0 0 0 0 0 0 0 0 0 0 0 0 0 0 0 0 0 0 0 0
0 0 0 0 0 1 0 1 0 0 0 0 0 0 0 0 0 0 0 0 0 0 0 0 0 0 0 0 0 0 0 0 0 0 0 0 0 0 0 0 0 0 0 0 0
0 0 0 0 0 0 0 0 0 0 0 0 0 0 0 0 0 0 0 0 0 0 0 0 0 0 0 0 0 0 0 0 0 0 0 0 0 0 0 0 0 0 0 0 0
0 0 0 0 0 0 0 0 1 0 0 0 0 0 0 0 0 0 0 0 0 0 0 0 0 0 0 0 0 0 0 0 0 0 0 0 0 0 0 0 0 0 0 0 0
0 1 1 0 0 0 0 0 0 0 0 0 0 0 0 0 0 0 0 0 0 14 0 0 0 0 0 0 0 0 0 0 0 0 0 0 0 0 0 0 0 0 0 0 0
0 2 1 2 0 0 0 0 0 0 0 0 0 4 2 1 0 0 0 0 0 0 0 0 0 0 0 0 0 0 0 0 0 0 0 0 0 0 0 0 0 0 0 0 0
0 0 2 0 0 0 0 0 0 0 0 1 6 15 15 4 0 0 0 0 0 0 0 0 0 0 0 0 0 0 0 0 0 0 0 0 0 0 0 0 0 0 0 0 0
CIN
-0 -0 -0 -0 -0 -1 -0 -0 -0 -0 -2 -0 -37 -39 -0 -0 -2 -2 -0 -0 -0 -0 -0 -0 -0 -0 -0 -0 -0 -0 -0 -0 -0 -0 -0 -0 -0 -0 -0 -0 -0 -0 -0 -0 -0
-0 -0 -0 -0 -0 -0 -0 -1 -0 -0 -0 -1 -0 -5 -1 -98 -2 -0 -0 -0 -0 -1 -7 -0 -0 -0 -0 -0 -0 -0 -0 -0 -0 -0 -0 -0 -0 -0 -0 -0 -0 -0 -0 -0 -0
-0 -0 -0 -0 -0 -0 -0 -0 -0 -0 -0 -0 -0 -61 -30 -4 -0 -0 -0 -0 -0 -0 -9 -0 -0 -0 -0 -0 -0 -0 -0 -0 -0 -0 -0 -0 -0 -0 -0 -0 -0 -0 -0 -0 -247
-0 -0 -0 -0 -0 -0 -0 -0 -0 -1 -0 -0 -0 -10 -19 -3 -0 -0 -1 -0 -3 -2 -15 -0 -0 -0 -0 -0 -0 -0 -0 -0 -0 -0 -0 -0 -0 -0 -0 -0 -0 -0 -0 -0 -0
-0 -0 -0 -0 -0 -0 -0 -0 -0 -1 -0 -0 -0 -0 -0 -0 -0 -0 -64 -20 -1 -3 -14 -0 -0 -0 -0 -0 -0 -0 -0 -0 -0 -0 -0 -0 -0 -0 -0 -0 -0 -0 -0 -0 -0
-0 -0 -0 -0 -0 -0 -0 -0 -0 -0 -0 -0 -0 -4 -0 -0 -0 -0 -0 -15 -1 -10 -24 -0 -0 -0 -0 -0 -0 -0 -0 -0 -0 -0 -0 -0 -0 -0 -0 -0 -0 -0 -0 -0 -0
-0 -0 -0 -0 -0 -0 -0 -0 -0 -0 -0 -0 -1 -0 -0 -0 -0 -0 -73 -16 -10 -12 -15 -0 -0 -0 -0 -0 -0 -0 -0 -0 -0 -0 -0 -0 -0 -0 -0 -0 -0 -0 -0 -0 -0
-0 -0 -0 -0 -0 -0 -0 -3 -2 -8 -2 -0 -6 -0 -1 -0 -0 -0 -134 -32 -78 -70 -23 -34 -29 -4 -0 -0 -0 -0 -0 -0 -0 -0 -0 -0 -0 -0 -0 -0 -0 -0 -0 -0 -0
-0 -0 -0 -0 -0 -0 -2 -0 -0 -3 -3 -0 -0 -2 -4 -1 -0 -0 -0 -48 -62 -48 -29 -16 -22 -27 -0 -0 -0 -0 -0 -0 -0 -0 -0 -0 -0 -0 -0 -0 -0 -0 -0 -0 -0
-0 -0 -0 -0 -0 -3 -2 -1 -6 -15 -40 -2 -1 -0 -1 -0 -0 -0 -0 -0 -33 -15 -1 -7 -15 -13 -0 -6 -0 -2 -0 -0 -0 -0 -0 -0 -0 -0 -0 -0 -0 -0 -0 -0 -0
-0 -0 -31 -11 -1 -0 -2 -0 -0 -18 -9 -0 -0 -0 -4 -0 -20 -0 -0 -3 -25 -13 -0 -16 -0 -0 -0 -0 -0 -0 -0 -0 -0 -0 -0 -0 -0 -0 -0 -0 -0 -0 -0 -0 -0
-12 -0 -34 -8 -4 -0 -18 -4 -2 -8 -2 -14 -11 -35 -0 -6 -0 -0 -0 -44 -2 -0 -21 -18 -11 -8 -12 -19 -13 -18 -0 -0 -0 -0 -0 -0 -0 -0 -0 -0 -0 -0 -0 -0 -0
-7 -2 -9 -6 -0 -4 -23 -0 -11 -13 -1 -0 -0 -0 -0 -2 -3 -20 -0 -23 -6 -0 -4 -12 -1 -15 -9 -3 -7 -7 -0 -0 -0 -0 -0 -0 -0 -0 -0 -0 -0 -0 -0 -0 -0
-0 -0 -0 -0 -4 -20 -0 -29 -36 -2 -0 -0 -0 -0 -3 -6 -6 -0 -0 -30 -31 -4 -5 -0 -0 -5 -0 -0 -0 -0 -0 -0 -0 -0 -0 -0 -0 -0 -0 -0 -0 -0 -0 -0 -0
-0 -0 -1 -1 -29 -16 -8 -41 -0 -3 -2 -0 -0 -2 -9 -19 -0 -11 -54 -1 -0 -0 -0 -0 -0 -0 -0 -0 -0 -0 -0 -0 -0 -0 -0 -0 -0 -0 -0 -0 -0 -0 -0 -0 -0
-0 -2 -23 -0 -21 -7 -0 -57 -0 -0 -0 -0 -0 -0 -4 -1 -22 -11 -41 -0 -0 -0 -0 -0 -0 -0 -0 -0 -0 -0 -0 -0 -0 -0 -0 -0 -0 -0 -0 -0 -0 -0 -0 -0 -0
-2 -1 -6 -11 -1 -0 -0 -0 -0 -0 -0 -0 -0 -2 -1 -1 -0 -14 -0 -23 -19 -0 -0 -0 -0 -0 -0 -0 -0 -0 -0 -0 -0 -0 -0 -0 -0 -0 -0 -0 -0 -0 -0 -0 -0
-5 -0 -0 -0 -0 -0 -0 -0 -0 -0 -0 -0 -0 -0 -7 -2 -2 -7 -0 -0 -0 -0 -0 -0 -0 -0 -0 -0 -0 -0 -0 -0 -0 -0 -0 -0 -0 -0 -0 -0 -0 -0 -0 -0 -0
-0 -0 -3 -2 -5 -14 -0 -0 -0 -0 -0 -0 -2 -2 -0 -3 -0 -0 -0 -0 -0 -0 -0 -0 -0 -0 -0 -0 -0 -0 -0 -0 -0 -0 -0 -0 -0 -0 -0 -0 -0 -0 -0 -0 -0
-0 -0 -0 -0 -0 -0 -1 -0 -0 -0 -3 -0 -0 -0 -5 -0 -4 -0 -0 -0 -0 -0 -0 -0 -0 -0 -0 -0 -0 -0 -0 -0 -0 -0 -0 -0 -0 -0 -0 -0 -0 -0 -0 -0 -0
-0 -0 -0 -0 -0 -0 -0 -0 -0 -0 -0 -0 -0 -0 -0 -0 -0 -0 -0 -0 -0 -0 -0 -0 -0 -0 -0 -0 -0 -0 -0 -0 -0 -0 -0 -0 -0 -0 -0 -0 -0 -0 -0 -0 -0
-0 -0 -0 -0 -0 -0 -0 -0 -0 -0 -0 -0 -0 -0 -0 -0 -0 -0 -0 -0 -0 -0 -0 -0 -0 -1 -0 -0 -0 -0 -0 -0 -0 -0 -0 -0 -0 -0 -0 -0 -0 -0 -0 -0 -0
-0 -0 -0 -0 -0 -0 -0 -0 -0 -0 -0 -0 -0 -0 -0 -0 -0 -0 -0 -0 -0 -0 -0 -0 -0 -0 -0 -0 -0 -0 -0 -0 -0 -0 -0 -0 -0 -0 -0 -0 -0 -0 -0 -0 -0
-0 -0 -0 -0 -0 -0 -0 -0 -7 -0 -0 -0 -0 -0 -0 -0 -0 -0 -0 -0 -0 -0 -0 -0 -0 -0 -0 -0 -0 -0 -0 -0 -0 -0 -0 -0 -0 -0 -0 -0 -0 -0 -0 -0 -0
-0 -0 -0 -0 -0 -0 -0 -0 -0 -0 -0 -0 -0 -0 -0 -0 -0 -0 -0 -0 -0 -26 -0 -0 -0 -0 -0 -0 -0 -0 -0 -0 -0 -0 -0 -0 -0 -0 -0 -0 -0 -0 -0 -0 -0
-0 -0 -0 -0 -0 -0 -0 -0 -0 -0 -0 -0 -0 -18 -17 -32 -0 -0 -0 -0 -0 -0 -0 -0 -0 -0 -0 -0 -0 -0 -0 -0 -0 -0 -0 -0 -0 -0 -0 -0 -0 -0 -0 -0 -0
-0 -1 -0 -0 -0 -0 -0 -0 -0 -0 -0 -68 -30 -22 -35 -52 -0 -0 -0 -0 -0 -0 -0 -0 -0 -0 -0 -0 -0 -0 -0 -0 -0 -0 -0 -0 -0 -0 -0 -0 -0 -0 -0 -0 -0
Wind_Speed
20 21 20 18 18 13 16 18 16 19 21 20 20 15 14 9 7 4 15 9 11 18 12 6 6 5 4 3 4 4 3 5 6 7 5 2 3 3 3 5 3 3 4 4 11
23 23 22 19 18 19 16 14 17 18 20 21 20 21 14 9 3 12 11 19 20 16 4 10 8 7 3 5 4 5 5 9 6 5 2 4 2 4 5 6 5 4 4 5 12
21 22 20 19 17 19 18 17 15 19 17 20 19 15 14 7 1 10 22 27 21 18 6 4 5 7 5 4 4 5 6 5 4 3 2 2 6 2 3 5 4 4 6 4 2
23 22 20 18 19 16 18 17 17 18 19 20 19 17 12 6 8 2 9 27 23 14 8 5 4 8 6 6 4 3 6 5 5 5 2 1 3 3 5 8 2 4 5 5 2
23 22 21 19 20 17 16 16 17 18 18 19 17 12 5 5 9 4 7 18 17 15 14 9 6 6 7 8 3 4 2 5 5 6 4 2 6 7 6 11 4 5 6 8 6
21 21 20 20 19 16 15 16 16 17 16 17 14 12 5 9 7 6 6 11 16 15 11 8 8 5 5 4 8 4 7 5 4 5 3 5 6 5 3 7 9 7 8 8 8
22 20 19 19 18 16 14 16 15 15 15 15 13 5 6 14 1 5 3 15 11 8 10 6 5 5 4 3 5 1 2 2 5 3 5 3 11 8 7 9 12 14 8 8 10
21 19 18 17 16 15 15 15 14 12 14 14 11 3 6 9 9 7 4 5 4 5 6 8 6 2 2 1 4 6 4 3 3 6 6 7 18 6 8 7 10 11 11 8 10
20 19 18 17 17 16 12 15 16 15 16 14 4 5 2 1 5 5 1 7 6 3 2 5 6 3 1 5 3 1 4 3 5 6 3 8 3 5 7 9 11 12 14 9 10
20 20 18 17 14 12 14 15 15 13 7 3 4 5 3 5 5 5 2 7 4 8 5 4 3 4 3 3 8 6 5 3 4 1 3 6 8 14 9 6 8 9 12 13 10
20 18 17 16 15 15 10 4 5 1 1 7 3 5 4 3 6 4 4 6 4 2 4 5 4 8 11 7 2 5 3 3 3 2 3 6 5 12 11 6 9 11 14 15 17
20 18 17 15 14 17 2 3 5 2 4 5 6 11 3 3 11 7 8 6 5 5 6 4 9 5 7 5 3 3 2 2 5 1 2 6 12 15 16 13 16 17 18 18 16
22 20 18 17 16 3 3 5 4 4 1 1 0 3 6 7 6 10 11 3 6 5 6 4 4 10 6 4 4 2 3 4 4 4 2 7 9 5 6 7 5 11 15 14 15
25 23 21 17 7 2 3 3 6 3 3 4 3 4 7 10 4 5 7 4 4 8 6 3 3 11 11 8 4 3 1 2 3 4 3 5 8 7 8 13 4 10 8 9 10
21 16 11 8 1 1 2 5 5 1 8 10 7 2 2 2 14 5 0 1 4 10 4 2 3 10 8 6 6 4 3 4 3 3 3 2 1 12 4 8 7 6 6 6 9
20 16 8 5 2 3 5 4 3 3 5 1 5 7 7 5 4 6 3 3 5 7 10 4 3 3 3 4 2 7 6 7 4 2 3 2 3 9 4 1 7 7 11 10 12
19 14 6 1 2 5 4 3 3 4 2 4 7 10 11 11 8 3 0 5 4 5 3 5 3 2 5 8 6 5 6 3 6 4 6 4 3 13 9 9 6 10 9 9 8
17 9 10 6 4 4 2 2 6 1 3 4 16 14 8 8 7 4 4 5 3 4 4 4 1 4 1 4 6 2 6 6 6 2 5 1 6 8 3 1 2 4 1 6 9
12 4 3 2 1 3 3 4 2 2 4 11 15 9 4 7 5 3 3 4 3 2 6 5 2 1 2 3 5 4 1 2 6 3 3 3 7 9 5 7 5 8 10 10 9
2 4 3 6 5 4 2 6 5 2 6 7 6 2 4 4 3 4 3 5 5 2 2 4 6 2 2 4 4 3 7 4 4 2 4 3 6 5 5 5 6 10 10 11 9
4 3 2 6 3 3 4 5 5 6 8 5 2 6 5 5 5 3 5 3 1 3 5 4 4 1 3 3 6 3 1 5 4 3 3 3 7 6 3 3 7 11 9 8 10
2 3 3 3 1 1 3 2 2 4 3 5 6 6 4 4 2 3 5 3 4 5 4 2 5 3 5 1 1 3 5 5 5 4 1 2 10 4 4 1 7 11 11 14 15
2 3 1 3 4 3 2 2 2 2 3 3 3 1 2 5 4 3 3 1 6 6 7 4 2 3 3 5 4 2 4 4 5 4 5 5 8 1 7 16 15 15 18 16 10
3 4 5 4 0 2 4 4 3 4 4 4 4 4 5 3 4 4 2 4 5 6 6 7 3 5 6 4 3 2 5 6 7 3 4 8 10 17 17 19 19 15 10 13 8
4 2 1 5 5 4 3 2 4 6 4 6 4 5 6 3 2 3 2 2 4 5 4 5 3 2 4 5 4 5 4 7 7 8 7 3 7 17 19 19 15 7 11 12 13
2 1 2 4 5 6 4 5 4 5 5 5 5 5 3 3 2 6 6 2 2 2 3 3 3 2 4 4 5 5 8 9 9 9 12 18 23 22 20 12 5 6 10 12 13
2 2 1 5 5 2 3 2 1 2 3 4 1 4 6 4 2 1 2 5 5 7 3 5 5 3 5 4 5 6 10 11 6 6 10 13 14 11 8 11 3 5 7 10 11
Wind_Direction
309 305 300 298 301 304 304 310 301 306 304 307 312 279 229 223 251 242 241 231 207 248 186 156 162 156 108 196 157 133 118 190 213 171 229 129 50 295 308 263 294 280 188 290 127
321 319 309 305 309 302 297 300 300 299 300 303 303 324 215 206 212 246 229 226 235 227 125 156 171 134 162 191 191 150 157 204 201 199 207 330 52 321 345 337 309 330 343 72 131
320 318 310 304 299 297 302 296 293 295 292 298 296 294 216 147 222 244 222 223 221 218 174 160 125 135 173 153 199 178 188 193 223 212 260 341 322 264 338 304 235 300 315 26 75
322 319 312 304 295 293 295 296 298 293 289 295 295 285 203 159 210 233 208 205 211 201 172 154 162 151 152 190 192 176 199 170 208 259 231 195 286 265 208 230 176 293 307 308 222
320 321 314 306 297 307 295 295 293 292 286 293 298 308 175 197 251 262 314 188 201 185 192 177 155 143 169 176 139 170 217 205 238 263 228 235 242 245 245 264 168 279 309 306 314
326 320 316 310 308 304 296 297 298 291 291 286 292 315 202 228 231 259 263 182 194 174 168 153 173 171 159 195 174 190 196 250 257 240 239 237 232 187 257 256 279 188 247 271 285
330 324 322 320 314 311 308 301 298 288 290 285 298 303 233 229 95 307 203 185 175 154 157 166 149 162 154 128 192 180 185 197 226 212 235 188 266 221 222 255 257 270 211 239 243
328 324 326 324 315 312 309 300 308 296 293 286 292 285 242 221 267 334 130 120 128 149 148 155 140 112 172 158 84 126 107 169 253 177 240 161 258 301 234 241 257 270 278 249 232
323 323 322 319 315 314 307 301 303 291 286 286 302 206 254 310 186 226 246 143 148 122 169 158 127 144 92 122 71 205 164 182 296 208 211 186 316 284 253 231 248 257 268 260 274
324 321 321 319 322 319 309 312 287 293 278 224 225 237 239 206 166 139 141 127 126 114 114 137 117 130 106 146 189 159 185 216 200 182 157 256 265 275 277 275 264 270 270 270 256
324 327 325 322 328 322 328 349 0 128 291 199 200 228 148 166 73 170 147 105 88 115 191 149 160 185 185 186 138 143 139 179 236 241 340 262 257 272 269 277 267 263 264 269 265
333 324 320 320 319 319 39 180 202 275 304 283 302 236 325 226 165 168 139 152 158 176 132 149 199 132 122 130 152 92 67 301 284 253 306 310 292 268 264 252 241 248 251 252 259
324 314 309 308 318 356 172 229 189 144 201 41 338 316 270 175 148 162 162 135 132 133 169 139 119 147 133 211 190 224 173 207 224 324 73 322 283 278 295 276 256 252 255 264 263
319 301 293 300 302 216 264 269 178 127 103 135 240 244 236 124 70 118 170 149 152 130 95 104 118 153 156 172 193 156 234 138 81 50 268 37 290 300 288 294 274 261 249 252 259
337 332 307 257 229 225 6 109 119 60 110 161 168 247 166 89 132 173 139 88 122 123 132 180 149 140 147 170 164 178 126 90 80 90 35 328 88 275 345 313 317 351 2 305 286
354 354 12 47 96 70 85 83 57 15 55 13 162 180 104 135 52 97 267 144 56 67 98 127 112 86 162 67 156 133 77 48 54 71 14 270 142 282 255 273 321 338 341 351 340
2 12 31 359 102 121 74 82 41 49 325 144 178 129 127 131 119 93 65 92 113 117 84 31 12 51 103 72 25 76 74 338 354 18 224 140 113 249 295 294 283 307 347 357 3
355 25 45 56 60 66 1 26 49 341 225 186 113 111 111 117 83 134 95 92 66 95 105 133 175 170 161 139 171 143 143 160 213 211 287 204 224 254 222 318 58 81 41 16 11
351 343 7 307 285 310 9 44 339 320 303 111 90 88 70 50 96 96 44 118 145 171 118 127 46 32 129 139 133 189 106 184 106 57 40 263 286 311 36 51 19 9 3 348 332
44 352 328 315 335 33 70 31 14 136 83 54 86 92 101 114 98 66 182 166 141 125 137 178 101 20 120 99 44 153 157 67 2 138 267 300 274 249 319 341 2 348 331 314 313
57 37 258 322 13 17 45 20 17 335 16 53 111 103 102 121 121 138 182 40 104 107 44 105 88 359 120 185 177 129 181 59 104 133 163 334 274 213 243 55 336 311 299 301 309
46 44 295 339 49 27 9 344 323 333 316 58 75 89 106 105 98 116 181 122 164 132 136 73 118 144 185 7 238 166 167 129 121 239 63 136 270 252 252 258 308 306 301 309 316
42 275 294 84 40 352 344 273 213 301 312 93 103 93 138 123 111 87 182 184 182 140 165 175 21 66 12 353 355 175 186 152 104 81 209 140 259 347 303 331 321 319 328 326 316
47 5 326 30 106 356 2 3 23 351 52 59 98 91 91 73 59 146 119 356 155 168 145 90 120 151 186 203 135 189 200 179 130 136 214 232 286 293 306 315 313 331 338 324 306
25 42 356 322 343 351 360 334 21 16 17 38 45 110 116 108 91 101 108 101 56 124 88 106 125 107 255 240 184 209 212 184 187 200 198 205 268 285 297 298 307 321 329 327 330
51 24 336 290 295 325 351 354 33 350 35 9 77 23 37 103 194 173 136 127 165 72 93 26 128 61 308 313 207 250 230 212 210 225 255 264 275 279 276 280 290 326 329 324 323
342 323 82 294 333 6 291 315 39 124 44 64 153 121 75 54 1 97 154 140 171 143 118 118 130 107 287 342 319 291 219 191 190 203 221 237 244 266 296 295 328 315 329 317 326